Year,Month,Day,Hour,Minute,Value (Times are PST for temperature in C)
2018,08,16,00,00,17.60
2018,08,16,00,01,17.60
2018,08,16,00,02,17.60
2018,08,16,00,03,17.60
2018,08,16,00,04,17.60
2018,08,16,00,05,17.60
2018,08,16,00,06,17.60
2018,08,16,00,07,17.60
2018,08,16,00,08,17.50
2018,08,16,00,09,17.50
2018,08,16,00,10,17.50
2018,08,16,00,11,17.50
2018,08,16,00,12,17.40
2018,08,16,00,13,17.40
2018,08,16,00,14,17.40
2018,08,16,00,15,17.30
2018,08,16,00,16,17.30
2018,08,16,00,17,17.30
2018,08,16,00,18,17.20
2018,08,16,00,19,17.20
2018,08,16,00,20,17.20
2018,08,16,00,21,17.10
2018,08,16,00,22,17.10
2018,08,16,00,23,17.10
2018,08,16,00,24,17.00
2018,08,16,00,25,17.00
2018,08,16,00,26,16.90
2018,08,16,00,27,16.90
2018,08,16,00,28,16.80
2018,08,16,00,29,16.80
2018,08,16,00,30,16.80
2018,08,16,00,31,16.80
2018,08,16,00,32,16.70
2018,08,16,00,33,16.70
2018,08,16,00,34,16.70
2018,08,16,00,35,16.70
2018,08,16,00,36,16.70
2018,08,16,00,37,16.70
2018,08,16,00,38,16.60
2018,08,16,00,39,16.60
2018,08,16,00,40,16.60
2018,08,16,00,41,16.50
2018,08,16,00,42,16.50
2018,08,16,00,43,16.40
2018,08,16,00,44,16.40
2018,08,16,00,45,16.40
2018,08,16,00,46,16.40
2018,08,16,00,47,16.30
2018,08,16,00,48,16.30
2018,08,16,00,49,16.30
2018,08,16,00,50,16.30
2018,08,16,00,51,16.20
2018,08,16,00,52,16.20
2018,08,16,00,53,16.10
2018,08,16,00,54,16.10
2018,08,16,00,55,16.10
2018,08,16,00,56,16.00
2018,08,16,00,57,16.00
2018,08,16,00,58,15.90
2018,08,16,00,59,15.90
2018,08,16,01,00,15.80
2018,08,16,01,01,15.80
2018,08,16,01,02,15.80
2018,08,16,01,03,15.70
2018,08,16,01,04,15.70
2018,08,16,01,05,15.70
2018,08,16,01,06,15.70
2018,08,16,01,07,15.60
2018,08,16,01,08,15.60
2018,08,16,01,09,15.60
2018,08,16,01,10,15.60
2018,08,16,01,11,15.50
2018,08,16,01,12,15.50
2018,08,16,01,13,15.40
2018,08,16,01,14,15.40
2018,08,16,01,15,15.40
2018,08,16,01,16,15.40
2018,08,16,01,17,15.40
2018,08,16,01,18,15.30
2018,08,16,01,19,15.30
2018,08,16,01,20,15.30
2018,08,16,01,21,15.30
2018,08,16,01,22,15.30
2018,08,16,01,23,15.30
2018,08,16,01,24,15.30
2018,08,16,01,25,15.30
2018,08,16,01,26,15.30
2018,08,16,01,27,15.20
2018,08,16,01,28,15.20
2018,08,16,01,29,15.10
2018,08,16,01,30,15.10
2018,08,16,01,31,15.10
2018,08,16,01,32,15.00
2018,08,16,01,33,15.00
2018,08,16,01,34,14.90
2018,08,16,01,35,14.90
2018,08,16,01,36,14.90
2018,08,16,01,37,14.90
2018,08,16,01,38,14.80
2018,08,16,01,39,14.80
2018,08,16,01,40,14.80
2018,08,16,01,41,14.70
2018,08,16,01,42,14.70
2018,08,16,01,43,14.70
2018,08,16,01,44,14.70
2018,08,16,01,45,14.70
2018,08,16,01,46,14.70
2018,08,16,01,47,14.60
2018,08,16,01,48,14.60
2018,08,16,01,49,14.60
2018,08,16,01,50,14.60
2018,08,16,01,51,14.60
2018,08,16,01,52,14.60
2018,08,16,01,53,14.70
2018,08,16,01,54,14.70
2018,08,16,01,55,14.70
2018,08,16,01,56,14.80
2018,08,16,01,57,14.80
2018,08,16,01,58,14.80
2018,08,16,01,59,14.90
2018,08,16,02,00,14.90
2018,08,16,02,01,15.00
2018,08,16,02,02,15.00
2018,08,16,02,03,15.00
2018,08,16,02,04,15.10
2018,08,16,02,05,15.10
2018,08,16,02,06,15.10
2018,08,16,02,07,15.10
2018,08,16,02,08,15.10
2018,08,16,02,09,15.10
2018,08,16,02,10,15.10
2018,08,16,02,11,15.10
2018,08,16,02,12,15.10
2018,08,16,02,13,15.00
2018,08,16,02,14,15.00
2018,08,16,02,15,14.90
2018,08,16,02,16,14.80
2018,08,16,02,17,14.80
2018,08,16,02,18,14.80
2018,08,16,02,19,14.80
2018,08,16,02,20,14.80
2018,08,16,02,21,14.70
2018,08,16,02,22,14.70
2018,08,16,02,23,14.70
2018,08,16,02,24,14.70
2018,08,16,02,25,14.70
2018,08,16,02,26,14.70
2018,08,16,02,27,14.70
2018,08,16,02,28,14.70
2018,08,16,02,29,14.70
2018,08,16,02,30,14.70
2018,08,16,02,31,14.70
2018,08,16,02,32,14.70
2018,08,16,02,33,14.70
2018,08,16,02,34,14.70
2018,08,16,02,35,14.60
2018,08,16,02,36,14.60
2018,08,16,02,37,14.60
2018,08,16,02,38,14.60
2018,08,16,02,39,14.60
2018,08,16,02,40,14.60
2018,08,16,02,41,14.60
2018,08,16,02,42,14.60
2018,08,16,02,43,14.50
2018,08,16,02,44,14.50
2018,08,16,02,45,14.50
2018,08,16,02,46,14.50
2018,08,16,02,47,14.50
2018,08,16,02,48,14.50
2018,08,16,02,49,14.60
2018,08,16,02,50,14.50
2018,08,16,02,51,14.60
2018,08,16,02,52,14.50
2018,08,16,02,53,14.50
2018,08,16,02,54,14.50
2018,08,16,02,55,14.50
2018,08,16,02,56,14.50
2018,08,16,02,57,14.40
2018,08,16,02,58,14.50
2018,08,16,02,59,14.50
2018,08,16,03,00,14.50
2018,08,16,03,01,14.40
2018,08,16,03,02,14.40
2018,08,16,03,03,14.40
2018,08,16,03,04,14.40
2018,08,16,03,05,14.40
2018,08,16,03,06,14.40
2018,08,16,03,07,14.40
2018,08,16,03,08,14.40
2018,08,16,03,09,14.40
2018,08,16,03,10,14.40
2018,08,16,03,11,14.40
2018,08,16,03,12,14.40
2018,08,16,03,13,14.40
2018,08,16,03,14,14.40
2018,08,16,03,15,14.40
2018,08,16,03,16,14.40
2018,08,16,03,17,14.40
2018,08,16,03,18,14.40
2018,08,16,03,19,14.40
2018,08,16,03,20,14.40
2018,08,16,03,21,14.40
2018,08,16,03,22,14.40
2018,08,16,03,23,14.40
2018,08,16,03,24,14.40
2018,08,16,03,25,14.40
2018,08,16,03,26,14.40
2018,08,16,03,27,14.30
2018,08,16,03,28,14.30
2018,08,16,03,29,14.30
2018,08,16,03,30,14.30
2018,08,16,03,31,14.30
2018,08,16,03,32,14.30
2018,08,16,03,33,14.40
2018,08,16,03,34,14.40
2018,08,16,03,35,14.40
2018,08,16,03,36,14.40
2018,08,16,03,37,14.40
2018,08,16,03,38,14.40
2018,08,16,03,39,14.40
2018,08,16,03,40,14.40
2018,08,16,03,41,14.40
2018,08,16,03,42,14.50
2018,08,16,03,43,14.50
2018,08,16,03,44,14.50
2018,08,16,03,45,14.50
2018,08,16,03,46,14.50
2018,08,16,03,47,14.50
2018,08,16,03,48,14.50
2018,08,16,03,49,14.50
2018,08,16,03,50,14.50
2018,08,16,03,51,14.50
2018,08,16,03,52,14.50
2018,08,16,03,53,14.50
2018,08,16,03,54,14.50
2018,08,16,03,55,14.50
2018,08,16,03,56,14.50
2018,08,16,03,57,14.50
2018,08,16,03,58,14.50
2018,08,16,03,59,14.50
2018,08,16,04,00,14.50
2018,08,16,04,01,14.50
2018,08,16,04,02,14.50
2018,08,16,04,03,14.60
2018,08,16,04,04,14.60
2018,08,16,04,05,14.60
2018,08,16,04,06,14.60
2018,08,16,04,07,14.60
2018,08,16,04,08,14.60
2018,08,16,04,09,14.60
2018,08,16,04,10,14.60
2018,08,16,04,11,14.60
2018,08,16,04,12,14.60
2018,08,16,04,13,14.60
2018,08,16,04,14,14.60
2018,08,16,04,15,14.60
2018,08,16,04,16,14.60
2018,08,16,04,17,14.60
2018,08,16,04,18,14.60
2018,08,16,04,19,14.60
2018,08,16,04,20,14.60
2018,08,16,04,21,14.60
2018,08,16,04,22,14.60
2018,08,16,04,23,14.60
2018,08,16,04,24,14.50
2018,08,16,04,25,14.50
2018,08,16,04,26,14.50
2018,08,16,04,27,14.40
2018,08,16,04,28,14.40
2018,08,16,04,29,14.40
2018,08,16,04,30,14.40
2018,08,16,04,31,14.40
2018,08,16,04,32,14.40
2018,08,16,04,33,14.40
2018,08,16,04,34,14.40
2018,08,16,04,35,14.40
2018,08,16,04,36,14.30
2018,08,16,04,37,14.30
2018,08,16,04,38,14.30
2018,08,16,04,39,14.30
2018,08,16,04,40,14.30
2018,08,16,04,41,14.30
2018,08,16,04,42,14.30
2018,08,16,04,43,14.30
2018,08,16,04,44,14.20
2018,08,16,04,45,14.20
2018,08,16,04,46,14.20
2018,08,16,04,47,14.20
2018,08,16,04,48,14.20
2018,08,16,04,49,14.20
2018,08,16,04,50,14.20
2018,08,16,04,51,14.20
2018,08,16,04,52,14.20
2018,08,16,04,53,14.20
2018,08,16,04,54,14.20
2018,08,16,04,55,14.20
2018,08,16,04,56,14.20
2018,08,16,04,57,14.20
2018,08,16,04,58,14.20
2018,08,16,04,59,14.20
2018,08,16,05,00,14.20
2018,08,16,05,01,14.20
2018,08,16,05,02,14.10
2018,08,16,05,03,14.10
2018,08,16,05,04,14.10
2018,08,16,05,05,14.10
2018,08,16,05,06,14.10
2018,08,16,05,07,14.10
2018,08,16,05,08,14.10
2018,08,16,05,09,14.10
2018,08,16,05,10,14.10
2018,08,16,05,11,14.10
2018,08,16,05,12,14.10
2018,08,16,05,13,14.10
2018,08,16,05,14,14.10
2018,08,16,05,15,14.10
2018,08,16,05,16,14.10
2018,08,16,05,17,14.00
2018,08,16,05,18,14.00
2018,08,16,05,19,14.00
2018,08,16,05,20,14.00
2018,08,16,05,21,13.90
2018,08,16,05,22,13.90
2018,08,16,05,23,13.90
2018,08,16,05,24,13.90
2018,08,16,05,25,13.90
2018,08,16,05,26,13.90
2018,08,16,05,27,13.90
2018,08,16,05,28,13.80
2018,08,16,05,29,13.80
2018,08,16,05,30,13.80
2018,08,16,05,31,13.80
2018,08,16,05,32,13.80
2018,08,16,05,33,13.80
2018,08,16,05,34,13.80
2018,08,16,05,35,13.80
2018,08,16,05,36,13.80
2018,08,16,05,37,13.80
2018,08,16,05,38,13.80
2018,08,16,05,39,13.80
2018,08,16,05,40,13.80
2018,08,16,05,41,13.80
2018,08,16,05,42,13.80
2018,08,16,05,43,13.80
2018,08,16,05,44,13.80
2018,08,16,05,45,13.80
2018,08,16,05,46,13.80
2018,08,16,05,47,13.80
2018,08,16,05,48,13.80
2018,08,16,05,49,13.80
2018,08,16,05,50,13.80
2018,08,16,05,51,13.80
2018,08,16,05,52,13.80
2018,08,16,05,53,13.80
2018,08,16,05,54,13.80
2018,08,16,05,55,13.80
2018,08,16,05,56,13.80
2018,08,16,05,57,13.80
2018,08,16,05,58,13.80
2018,08,16,05,59,13.70
2018,08,16,06,00,13.70
2018,08,16,06,01,13.80
2018,08,16,06,02,13.80
2018,08,16,06,03,13.80
2018,08,16,06,04,13.80
2018,08,16,06,05,13.80
2018,08,16,06,06,13.80
2018,08,16,06,07,13.80
2018,08,16,06,08,13.80
2018,08,16,06,09,13.80
2018,08,16,06,10,13.80
2018,08,16,06,11,13.80
2018,08,16,06,12,13.80
2018,08,16,06,13,13.80
2018,08,16,06,14,13.80
2018,08,16,06,15,13.70
2018,08,16,06,16,13.70
2018,08,16,06,17,13.70
2018,08,16,06,18,13.70
2018,08,16,06,19,13.70
2018,08,16,06,20,13.70
2018,08,16,06,21,13.70
2018,08,16,06,22,13.70
2018,08,16,06,23,13.70
2018,08,16,06,24,13.70
2018,08,16,06,25,13.70
2018,08,16,06,26,13.70
2018,08,16,06,27,13.70
2018,08,16,06,28,13.70
2018,08,16,06,29,13.70
2018,08,16,06,30,13.70
2018,08,16,06,31,13.70
2018,08,16,06,32,13.70
2018,08,16,06,33,13.70
2018,08,16,06,34,13.70
2018,08,16,06,35,13.70
2018,08,16,06,36,13.70
2018,08,16,06,37,13.70
2018,08,16,06,38,13.70
2018,08,16,06,39,13.70
2018,08,16,06,40,13.70
2018,08,16,06,41,13.70
2018,08,16,06,42,13.70
2018,08,16,06,43,13.70
2018,08,16,06,44,13.70
2018,08,16,06,45,13.70
2018,08,16,06,46,13.70
2018,08,16,06,47,13.70
2018,08,16,06,48,13.80
2018,08,16,06,49,13.80
2018,08,16,06,50,13.80
2018,08,16,06,51,13.80
2018,08,16,06,52,13.80
2018,08,16,06,53,13.80
2018,08,16,06,54,13.80
2018,08,16,06,55,13.80
2018,08,16,06,56,13.80
2018,08,16,06,57,13.80
2018,08,16,06,58,13.80
2018,08,16,06,59,13.80
2018,08,16,07,00,13.80
2018,08,16,07,01,13.80
2018,08,16,07,02,13.80
2018,08,16,07,03,13.90
2018,08,16,07,04,13.90
2018,08,16,07,05,13.90
2018,08,16,07,06,13.90
2018,08,16,07,07,14.00
2018,08,16,07,08,14.00
2018,08,16,07,09,14.00
2018,08,16,07,10,14.10
2018,08,16,07,11,14.10
2018,08,16,07,12,14.10
2018,08,16,07,13,14.10
2018,08,16,07,14,14.20
2018,08,16,07,15,14.20
2018,08,16,07,16,14.20
2018,08,16,07,17,14.20
2018,08,16,07,18,14.30
2018,08,16,07,19,14.30
2018,08,16,07,20,14.30
2018,08,16,07,21,14.30
2018,08,16,07,22,14.40
2018,08,16,07,23,14.40
2018,08,16,07,24,14.40
2018,08,16,07,25,14.40
2018,08,16,07,26,14.40
2018,08,16,07,27,14.40
2018,08,16,07,28,14.50
2018,08,16,07,29,14.50
2018,08,16,07,30,14.50
2018,08,16,07,31,14.50
2018,08,16,07,32,14.60
2018,08,16,07,33,14.60
2018,08,16,07,34,14.70
2018,08,16,07,35,14.70
2018,08,16,07,36,14.70
2018,08,16,07,37,14.80
2018,08,16,07,38,14.80
2018,08,16,07,39,14.80
2018,08,16,07,40,14.90
2018,08,16,07,41,15.00
2018,08,16,07,42,15.00
2018,08,16,07,43,15.10
2018,08,16,07,44,15.10
2018,08,16,07,45,15.20
2018,08,16,07,46,15.20
2018,08,16,07,47,15.30
2018,08,16,07,48,15.30
2018,08,16,07,49,15.40
2018,08,16,07,50,15.40
2018,08,16,07,51,15.40
2018,08,16,07,52,15.50
2018,08,16,07,53,15.50
2018,08,16,07,54,15.60
2018,08,16,07,55,15.60
2018,08,16,07,56,15.60
2018,08,16,07,57,15.60
2018,08,16,07,58,15.60
2018,08,16,07,59,15.70
2018,08,16,08,00,15.70
2018,08,16,08,01,15.70
2018,08,16,08,02,15.70
2018,08,16,08,03,15.70
2018,08,16,08,04,15.80
2018,08,16,08,05,15.80
2018,08,16,08,06,15.80
2018,08,16,08,07,15.80
2018,08,16,08,08,15.80
2018,08,16,08,09,15.90
2018,08,16,08,10,15.90
2018,08,16,08,11,15.90
2018,08,16,08,12,16.00
2018,08,16,08,13,16.00
2018,08,16,08,14,16.10
2018,08,16,08,15,16.20
2018,08,16,08,16,16.20
2018,08,16,08,17,16.20
2018,08,16,08,18,16.30
2018,08,16,08,19,16.30
2018,08,16,08,20,16.40
2018,08,16,08,21,16.40
2018,08,16,08,22,16.50
2018,08,16,08,23,16.60
2018,08,16,08,24,16.60
2018,08,16,08,25,16.60
2018,08,16,08,26,16.60
2018,08,16,08,27,16.70
2018,08,16,08,28,16.70
2018,08,16,08,29,16.70
2018,08,16,08,30,16.80
2018,08,16,08,31,16.80
2018,08,16,08,32,16.80
2018,08,16,08,33,16.80
2018,08,16,08,34,16.80
2018,08,16,08,35,16.90
2018,08,16,08,36,16.90
2018,08,16,08,37,16.90
2018,08,16,08,38,17.00
2018,08,16,08,39,17.00
2018,08,16,08,40,17.10
2018,08,16,08,41,17.10
2018,08,16,08,42,17.20
2018,08,16,08,43,17.20
2018,08,16,08,44,17.30
2018,08,16,08,45,17.20
2018,08,16,08,46,17.20
2018,08,16,08,47,17.20
2018,08,16,08,48,17.10
2018,08,16,08,49,17.10
2018,08,16,08,50,17.10
2018,08,16,08,51,17.10
2018,08,16,08,52,17.10
2018,08,16,08,53,17.10
2018,08,16,08,54,17.10
2018,08,16,08,55,17.10
2018,08,16,08,56,17.20
2018,08,16,08,57,17.20
2018,08,16,08,58,17.30
2018,08,16,08,59,17.30
2018,08,16,09,00,17.30
2018,08,16,09,01,17.30
2018,08,16,09,02,17.30
2018,08,16,09,03,17.20
2018,08,16,09,04,17.10
2018,08,16,09,05,16.90
2018,08,16,09,06,16.90
2018,08,16,09,07,16.80
2018,08,16,09,08,16.80
2018,08,16,09,09,16.80
2018,08,16,09,10,16.80
2018,08,16,09,11,16.80
2018,08,16,09,12,16.80
2018,08,16,09,13,16.70
2018,08,16,09,14,16.70
2018,08,16,09,15,16.70
2018,08,16,09,16,16.60
2018,08,16,09,17,16.60
2018,08,16,09,18,16.60
2018,08,16,09,19,16.60
2018,08,16,09,20,16.60
2018,08,16,09,21,16.60
2018,08,16,09,22,16.70
2018,08,16,09,23,16.70
2018,08,16,09,24,16.70
2018,08,16,09,25,16.70
2018,08,16,09,26,16.70
2018,08,16,09,27,16.60
2018,08,16,09,28,16.60
2018,08,16,09,29,16.60
2018,08,16,09,30,16.60
2018,08,16,09,31,16.50
2018,08,16,09,32,16.50
2018,08,16,09,33,16.50
2018,08,16,09,34,16.40
2018,08,16,09,35,16.40
2018,08,16,09,36,16.40
2018,08,16,09,37,16.40
2018,08,16,09,38,16.40
2018,08,16,09,39,16.40
2018,08,16,09,40,16.40
2018,08,16,09,41,16.40
2018,08,16,09,42,16.40
2018,08,16,09,43,16.40
2018,08,16,09,44,16.40
2018,08,16,09,45,16.40
2018,08,16,09,46,16.40
2018,08,16,09,47,16.50
2018,08,16,09,48,16.50
2018,08,16,09,49,16.60
2018,08,16,09,50,16.60
2018,08,16,09,51,16.70
2018,08,16,09,52,16.70
2018,08,16,09,53,16.80
2018,08,16,09,54,16.80
2018,08,16,09,55,16.80
2018,08,16,09,56,16.80
2018,08,16,09,57,16.80
2018,08,16,09,58,16.80
2018,08,16,09,59,16.80
2018,08,16,10,00,16.80
2018,08,16,10,01,16.70
2018,08,16,10,02,16.70
2018,08,16,10,03,16.70
2018,08,16,10,04,16.70
2018,08,16,10,05,16.70
2018,08,16,10,06,16.70
2018,08,16,10,07,16.80
2018,08,16,10,08,16.80
2018,08,16,10,09,16.80
2018,08,16,10,10,16.80
2018,08,16,10,11,16.80
2018,08,16,10,12,16.80
2018,08,16,10,13,16.80
2018,08,16,10,14,16.80
2018,08,16,10,15,16.90
2018,08,16,10,16,16.90
2018,08,16,10,17,16.90
2018,08,16,10,18,16.90
2018,08,16,10,19,16.90
2018,08,16,10,20,16.90
2018,08,16,10,21,17.00
2018,08,16,10,22,17.00
2018,08,16,10,23,17.10
2018,08,16,10,24,17.10
2018,08,16,10,25,17.10
2018,08,16,10,26,17.10
2018,08,16,10,27,17.20
2018,08,16,10,28,17.20
2018,08,16,10,29,17.20
2018,08,16,10,30,17.20
2018,08,16,10,31,17.20
2018,08,16,10,32,17.20
2018,08,16,10,33,17.20
2018,08,16,10,34,17.20
2018,08,16,10,35,17.20
2018,08,16,10,36,17.10
2018,08,16,10,37,17.10
2018,08,16,10,38,17.10
2018,08,16,10,39,17.10
2018,08,16,10,40,17.10
2018,08,16,10,41,17.20
2018,08,16,10,42,17.20
2018,08,16,10,43,17.20
2018,08,16,10,44,17.20
2018,08,16,10,45,17.20
2018,08,16,10,46,17.30
2018,08,16,10,47,17.30
2018,08,16,10,48,17.30
2018,08,16,10,49,17.30
2018,08,16,10,50,17.30
2018,08,16,10,51,17.30
2018,08,16,10,52,17.40
2018,08,16,10,53,17.40
2018,08,16,10,54,17.50
2018,08,16,10,55,17.50
2018,08,16,10,56,17.50
2018,08,16,10,57,17.50
2018,08,16,10,58,17.40
2018,08,16,10,59,17.40
2018,08,16,11,00,17.40
2018,08,16,11,01,17.50
2018,08,16,11,02,17.50
2018,08,16,11,03,17.60
2018,08,16,11,04,17.70
2018,08,16,11,05,17.70
2018,08,16,11,06,17.80
2018,08,16,11,07,17.70
2018,08,16,11,08,17.70
2018,08,16,11,09,17.70
2018,08,16,11,10,17.70
2018,08,16,11,11,17.80
2018,08,16,11,12,17.80
2018,08,16,11,13,17.80
2018,08,16,11,14,17.80
2018,08,16,11,15,17.80
2018,08,16,11,16,17.80
2018,08,16,11,17,17.80
2018,08,16,11,18,17.90
2018,08,16,11,19,18.00
2018,08,16,11,20,18.00
2018,08,16,11,21,18.10
2018,08,16,11,22,18.20
2018,08,16,11,23,18.20
2018,08,16,11,24,18.20
2018,08,16,11,25,18.20
2018,08,16,11,26,18.20
2018,08,16,11,27,18.10
2018,08,16,11,28,18.10
2018,08,16,11,29,18.10
2018,08,16,11,30,18.10
2018,08,16,11,31,18.10
2018,08,16,11,32,18.10
2018,08,16,11,33,18.10
2018,08,16,11,34,18.10
2018,08,16,11,35,18.10
2018,08,16,11,36,18.10
2018,08,16,11,37,18.10
2018,08,16,11,38,18.10
2018,08,16,11,39,18.10
2018,08,16,11,40,18.10
2018,08,16,11,41,18.20
2018,08,16,11,42,18.20
2018,08,16,11,43,18.30
2018,08,16,11,44,18.40
2018,08,16,11,45,18.40
2018,08,16,11,46,18.40
2018,08,16,11,47,18.40
2018,08,16,11,48,18.50
2018,08,16,11,49,18.50
2018,08,16,11,50,18.50
2018,08,16,11,51,18.50
2018,08,16,11,52,18.60
2018,08,16,11,53,18.60
2018,08,16,11,54,18.70
2018,08,16,11,55,18.70
2018,08,16,11,56,18.80
2018,08,16,11,57,18.80
2018,08,16,11,58,18.80
2018,08,16,11,59,18.80
2018,08,16,12,00,18.80
2018,08,16,12,01,18.80
2018,08,16,12,02,18.80
2018,08,16,12,03,18.80
2018,08,16,12,04,18.80
2018,08,16,12,05,18.80
2018,08,16,12,06,18.80
2018,08,16,12,07,18.80
2018,08,16,12,08,18.80
2018,08,16,12,09,18.80
2018,08,16,12,10,18.80
2018,08,16,12,11,18.80
2018,08,16,12,12,18.80
2018,08,16,12,13,18.90
2018,08,16,12,14,18.90
2018,08,16,12,15,19.00
2018,08,16,12,16,19.00
2018,08,16,12,17,19.10
2018,08,16,12,18,19.10
2018,08,16,12,19,19.10
2018,08,16,12,20,19.10
2018,08,16,12,21,19.10
2018,08,16,12,22,19.30
2018,08,16,12,23,19.30
2018,08,16,12,24,19.40
2018,08,16,12,25,19.40
2018,08,16,12,26,19.50
2018,08,16,12,27,19.60
2018,08,16,12,28,19.50
2018,08,16,12,29,19.50
2018,08,16,12,30,19.40
2018,08,16,12,31,19.30
2018,08,16,12,32,19.20
2018,08,16,12,33,19.20
2018,08,16,12,34,19.20
2018,08,16,12,35,19.20
2018,08,16,12,36,19.20
2018,08,16,12,37,19.20
2018,08,16,12,38,19.20
2018,08,16,12,39,19.20
2018,08,16,12,40,19.30
2018,08,16,12,41,19.40
2018,08,16,12,42,19.50
2018,08,16,12,43,19.50
2018,08,16,12,44,19.50
2018,08,16,12,45,19.60
2018,08,16,12,46,19.60
2018,08,16,12,47,19.50
2018,08,16,12,48,19.40
2018,08,16,12,49,19.40
2018,08,16,12,50,19.40
2018,08,16,12,51,19.40
2018,08,16,12,52,19.40
2018,08,16,12,53,19.40
2018,08,16,12,54,19.40
2018,08,16,12,55,19.40
2018,08,16,12,56,19.40
2018,08,16,12,57,19.40
2018,08,16,12,58,19.50
2018,08,16,12,59,19.50
2018,08,16,13,00,19.60
2018,08,16,13,01,19.70
2018,08,16,13,02,19.70
2018,08,16,13,03,19.80
2018,08,16,13,04,19.80
2018,08,16,13,05,19.80
2018,08,16,13,06,19.80
2018,08,16,13,07,19.70
2018,08,16,13,08,19.70
2018,08,16,13,09,19.70
2018,08,16,13,10,19.70
2018,08,16,13,11,19.70
2018,08,16,13,12,19.80
2018,08,16,13,13,19.90
2018,08,16,13,14,20.00
2018,08,16,13,15,20.10
2018,08,16,13,16,20.20
2018,08,16,13,17,20.30
2018,08,16,13,18,20.30
2018,08,16,13,19,20.50
2018,08,16,13,20,20.60
2018,08,16,13,21,20.60
2018,08,16,13,22,20.70
2018,08,16,13,23,20.80
2018,08,16,13,24,20.80
2018,08,16,13,25,20.90
2018,08,16,13,26,20.90
2018,08,16,13,27,20.90
2018,08,16,13,28,20.90
2018,08,16,13,29,20.90
2018,08,16,13,30,20.90
2018,08,16,13,31,20.90
2018,08,16,13,32,20.80
2018,08,16,13,33,20.90
2018,08,16,13,34,20.90
2018,08,16,13,35,20.80
2018,08,16,13,36,20.70
2018,08,16,13,37,20.60
2018,08,16,13,38,20.50
2018,08,16,13,39,20.40
2018,08,16,13,40,20.40
2018,08,16,13,41,20.30
2018,08,16,13,42,20.30
2018,08,16,13,43,20.30
2018,08,16,13,44,20.30
2018,08,16,13,45,20.30
2018,08,16,13,46,20.30
2018,08,16,13,47,20.40
2018,08,16,13,48,20.50
2018,08,16,13,49,20.60
2018,08,16,13,50,20.70
2018,08,16,13,51,20.60
2018,08,16,13,52,20.60
2018,08,16,13,53,20.60
2018,08,16,13,54,20.60
2018,08,16,13,55,20.70
2018,08,16,13,56,20.70
2018,08,16,13,57,20.60
2018,08,16,13,58,20.60
2018,08,16,13,59,20.70
2018,08,16,14,00,20.70
2018,08,16,14,01,20.60
2018,08,16,14,02,20.60
2018,08,16,14,03,20.60
2018,08,16,14,04,20.60
2018,08,16,14,05,20.60
2018,08,16,14,06,20.60
2018,08,16,14,07,20.60
2018,08,16,14,08,20.60
2018,08,16,14,09,20.70
2018,08,16,14,10,20.80
2018,08,16,14,11,20.90
2018,08,16,14,12,21.00
2018,08,16,14,13,21.00
2018,08,16,14,14,21.00
2018,08,16,14,15,21.00
2018,08,16,14,16,21.00
2018,08,16,14,17,21.10
2018,08,16,14,18,21.10
2018,08,16,14,19,21.20
2018,08,16,14,20,21.20
2018,08,16,14,21,21.20
2018,08,16,14,22,21.20
2018,08,16,14,23,21.10
2018,08,16,14,24,21.20
2018,08,16,14,25,21.20
2018,08,16,14,26,21.20
2018,08,16,14,27,21.20
2018,08,16,14,28,21.20
2018,08,16,14,29,21.30
2018,08,16,14,30,21.30
2018,08,16,14,31,21.40
2018,08,16,14,32,21.40
2018,08,16,14,33,21.40
2018,08,16,14,34,21.50
2018,08,16,14,35,21.50
2018,08,16,14,36,21.50
2018,08,16,14,37,21.40
2018,08,16,14,38,21.40
2018,08,16,14,39,21.40
2018,08,16,14,40,21.30
2018,08,16,14,41,21.20
2018,08,16,14,42,21.20
2018,08,16,14,43,21.20
2018,08,16,14,44,21.30
2018,08,16,14,45,21.30
2018,08,16,14,46,21.30
2018,08,16,14,47,21.30
2018,08,16,14,48,21.40
2018,08,16,14,49,21.50
2018,08,16,14,50,21.60
2018,08,16,14,51,21.70
2018,08,16,14,52,21.80
2018,08,16,14,53,21.90
2018,08,16,14,54,21.90
2018,08,16,14,55,22.00
2018,08,16,14,56,22.00
2018,08,16,14,57,22.00
2018,08,16,14,58,22.10
2018,08,16,14,59,22.10
2018,08,16,15,00,22.10
2018,08,16,15,01,22.00
2018,08,16,15,02,22.00
2018,08,16,15,03,22.00
2018,08,16,15,04,22.00
2018,08,16,15,05,22.10
2018,08,16,15,06,22.10
2018,08,16,15,07,22.20
2018,08,16,15,08,22.30
2018,08,16,15,09,22.40
2018,08,16,15,10,22.40
2018,08,16,15,11,22.40
2018,08,16,15,12,22.40
2018,08,16,15,13,22.50
2018,08,16,15,14,22.50
2018,08,16,15,15,22.60
2018,08,16,15,16,22.60
2018,08,16,15,17,22.60
2018,08,16,15,18,22.60
2018,08,16,15,19,22.60
2018,08,16,15,20,22.60
2018,08,16,15,21,22.60
2018,08,16,15,22,22.60
2018,08,16,15,23,22.60
2018,08,16,15,24,22.60
2018,08,16,15,25,22.60
2018,08,16,15,26,22.60
2018,08,16,15,27,22.60
2018,08,16,15,28,22.70
2018,08,16,15,29,22.70
2018,08,16,15,30,22.70
2018,08,16,15,31,22.70
2018,08,16,15,32,22.70
2018,08,16,15,33,22.60
2018,08,16,15,34,22.60
2018,08,16,15,35,22.60
2018,08,16,15,36,22.60
2018,08,16,15,37,22.60
2018,08,16,15,38,22.70
2018,08,16,15,39,22.70
2018,08,16,15,40,22.60
2018,08,16,15,41,22.60
2018,08,16,15,42,22.50
2018,08,16,15,43,22.50
2018,08,16,15,44,22.60
2018,08,16,15,45,22.60
2018,08,16,15,46,22.70
2018,08,16,15,47,22.80
2018,08,16,15,48,22.90
2018,08,16,15,49,22.90
2018,08,16,15,50,22.90
2018,08,16,15,51,22.90
2018,08,16,15,52,22.90
2018,08,16,15,53,23.00
2018,08,16,15,54,23.00
2018,08,16,15,55,23.00
2018,08,16,15,56,23.00
2018,08,16,15,57,23.00
2018,08,16,15,58,23.00
2018,08,16,15,59,23.10
2018,08,16,16,00,23.10
2018,08,16,16,01,23.00
2018,08,16,16,02,23.00
2018,08,16,16,03,23.00
2018,08,16,16,04,23.00
2018,08,16,16,05,22.90
2018,08,16,16,06,22.90
2018,08,16,16,07,22.90
2018,08,16,16,08,22.90
2018,08,16,16,09,23.00
2018,08,16,16,10,22.90
2018,08,16,16,11,22.90
2018,08,16,16,12,22.90
2018,08,16,16,13,23.00
2018,08,16,16,14,23.00
2018,08,16,16,15,23.10
2018,08,16,16,16,23.20
2018,08,16,16,17,23.30
2018,08,16,16,18,23.30
2018,08,16,16,19,23.40
2018,08,16,16,20,23.40
2018,08,16,16,21,23.40
2018,08,16,16,22,23.30
2018,08,16,16,23,23.20
2018,08,16,16,24,23.10
2018,08,16,16,25,22.90
2018,08,16,16,26,22.80
2018,08,16,16,27,22.70
2018,08,16,16,28,22.60
2018,08,16,16,29,22.60
2018,08,16,16,30,22.50
2018,08,16,16,31,22.50
2018,08,16,16,32,22.50
2018,08,16,16,33,22.60
2018,08,16,16,34,22.60
2018,08,16,16,35,22.60
2018,08,16,16,36,22.70
2018,08,16,16,37,22.80
2018,08,16,16,38,22.90
2018,08,16,16,39,23.00
2018,08,16,16,40,23.10
2018,08,16,16,41,23.20
2018,08,16,16,42,23.20
2018,08,16,16,43,23.30
2018,08,16,16,44,23.30
2018,08,16,16,45,23.40
2018,08,16,16,46,23.50
2018,08,16,16,47,23.60
2018,08,16,16,48,23.60
2018,08,16,16,49,23.70
2018,08,16,16,50,23.90
2018,08,16,16,51,24.00
2018,08,16,16,52,24.10
2018,08,16,16,53,24.10
2018,08,16,16,54,24.10
2018,08,16,16,55,24.10
2018,08,16,16,56,24.10
2018,08,16,16,57,24.20
2018,08,16,16,58,24.20
2018,08,16,16,59,24.20
2018,08,16,17,00,24.20
2018,08,16,17,01,24.20
2018,08,16,17,02,24.20
2018,08,16,17,03,24.10
2018,08,16,17,04,24.10
2018,08,16,17,05,24.00
2018,08,16,17,06,23.90
2018,08,16,17,07,23.90
2018,08,16,17,08,23.90
2018,08,16,17,09,23.90
2018,08,16,17,10,23.90
2018,08,16,17,11,23.90
2018,08,16,17,12,23.90
2018,08,16,17,13,24.00
2018,08,16,17,14,24.10
2018,08,16,17,15,24.10
2018,08,16,17,16,24.10
2018,08,16,17,17,24.10
2018,08,16,17,18,24.10
2018,08,16,17,19,24.00